Location: Dentlein
(49.1477°N, 10.4231°E)
Time: 02:16:00
(UTC+00:00)

Cosmos 2360 Rocket - Pass Details

Date: 23 May 2024
Orbit: 832 x 846 km, 71.0° (Epoch: 13 June)

Event Time Altitude Azimuth Distance (km) Brightness Sun altitude
Rises 01:57:39 0° 329° (NNW) 3,417 5.6 -11.4°
Reaches altitude 10° 02:00:07 10° 326° (NW) 2,478 4.9 -11.2°
Maximum altitude 02:05:43 61° 248° (WSW) 956 2.2 -10.6°
Drops below altitude 10° 02:11:16 10° 169° (SSE) 2,461 4.3 -10.0°
Sets 02:13:44 0° 166° (SSE) 3,391 5.0 -9.7°
